Location: Kitchener
(43.4500°N, 80.5000°W)
Time: 14:53:03
(UTC-04:00)

ISS - Visible Passes

Search period start: 25 May 2018 00:00
Search period end: 04 June 2018 00:00
Orbit: 402 x 407 km, 51.6° (Epoch: 26 May)

Date Brightness Start Highest point End Pass type
(mag) Time Alt. Az. Time Alt. Az. Time Alt. Az.
25 May -1.2 00:41:35 10° NW 00:44:07 20° N 00:46:03 13° NE visible
25 May -1.2 02:17:55 10° NW 02:18:38 15° NW 02:18:38 15° NW visible
25 May -1.6 22:11:36 10° W 22:14:29 28° NNW 22:17:22 10° NE visible
25 May -1.0 23:49:15 10° NW 23:51:42 19° N 23:54:08 10° NE visible
26 May -1.7 01:25:48 10° NW 01:27:40 26° NNW 01:27:40 26° NNW visible
26 May -1.0 22:56:47 10° NW 22:59:15 19° N 23:01:42 10° NE visible
27 May -1.8 00:33:40 10° NW 00:36:29 26° NNE 00:36:54 25° NNE visible
27 May -1.2 22:04:12 10° WNW 22:06:48 21° N 22:09:25 10° NE visible
27 May -1.3 23:41:28 10° NW 23:44:04 21° N 23:46:12 13° ENE visible
28 May -1.4 01:17:46 10° NW 01:18:49 19° NW 01:18:49 19° NW visible
28 May -1.2 22:49:09 10° NW 22:51:37 19° N 22:54:05 10° NE visible
29 May -2.3 00:25:35 10° NW 00:28:10 36° N 00:28:10 36° N visible
29 May -1.1 21:56:41 10° NW 21:59:08 19° N 22:01:34 10° NE visible
29 May -2.0 23:33:26 10° NW 23:36:20 28° NNE 23:37:33 22° ENE visible
30 May -1.0 01:09:46 10° WNW 01:10:11 13° WNW 01:10:11 13° WNW visible
30 May -1.6 22:41:14 10° NW 22:43:55 23° NNE 22:46:35 10° ENE visible
31 May -2.4 00:17:30 10° NW 00:19:36 37° NW 00:19:36 37° NW visible
31 May -1.4 21:48:54 10° NW 21:51:25 20° N 21:53:55 10° ENE visible
31 May -3.0 23:25:17 10° NW 23:28:28 46° NNE 23:29:03 41° ENE visible
01 Jun -2.3 22:33:05 10° NW 22:36:04 32° NNE 22:38:30 14° E visible
02 Jun -2.0 00:09:29 10° WNW 00:11:08 25° W 00:11:08 25° W visible
02 Jun -1.8 21:40:51 10° NW 21:43:36 24° NNE 21:46:22 10° ENE visible
02 Jun -4.0 23:17:07 10° WNW 23:20:24 86° SSW 23:20:37 77° SE visible
03 Jun -3.3 22:24:51 10° NW 22:28:05 55° NNE 22:30:07 20° E visible
